Location: Bergnershof
(48.9468°N, 10.9431°E)
Time: 01:45:43
(UTC+00:00)

Cosmos 968 Rocket - Visible Passes

Search period start: 14 June 2021 00:00
Search period end: 24 June 2021 00:00
Orbit: 741 x 770 km, 74.0° (Epoch: 13 June)

Date Brightness Start Highest point End Pass type
(mag) Time Alt. Az. Time Alt. Az. Time Alt. Az.
14 Jun 5.6 20:24:58 10° N 20:28:16 17° NE 20:31:33 10° E visible
14 Jun 3.4 22:05:44 10° NNW 22:10:53 85° ENE 22:13:42 27° SSE visible
14 Jun 5.4 23:49:15 10° WNW 23:51:56 14° W 23:53:41 12° WSW visible
15 Jun 4.0 21:25:04 10° NNW 21:30:03 50° ENE 21:33:36 19° SE visible
15 Jun 4.9 23:07:24 10° NW 23:11:33 25° W 23:13:35 19° SW visible
16 Jun 4.7 20:44:32 10° N 20:49:05 31° NE 20:53:31 10° ESE visible
16 Jun 4.1 22:26:12 10° NW 22:31:01 43° WSW 22:33:31 25° SSW visible
17 Jun 5.3 20:04:12 10° N 20:07:59 20° NE 20:11:45 10° E visible
17 Jun 3.5 21:45:16 10° NNW 21:50:23 76° WSW 21:53:28 24° SSE visible
17 Jun 5.7 23:30:01 10° WNW 23:31:14 11° W 23:32:27 10° WSW visible
18 Jun 3.6 21:04:30 10° NNW 21:09:37 64° ENE 21:13:27 18° SE visible
18 Jun 5.3 22:47:17 10° NW 22:50:54 20° W 22:53:27 14° SW visible
19 Jun 4.3 20:23:55 10° N 20:28:42 38° ENE 20:33:27 10° SE visible
19 Jun 4.6 22:05:52 10° NW 22:10:26 34° WSW 22:13:27 18° SSW visible
20 Jun 3.8 21:24:49 10° NNW 21:29:51 59° WSW 21:33:29 19° S visible
21 Jun 3.5 20:43:59 10° NNW 20:49:08 81° ENE 20:53:33 14° SSE visible
21 Jun 5.6 22:27:20 10° WNW 22:30:14 15° W 22:33:07 10° SW visible
22 Jun 4.0 20:03:19 10° NNW 20:08:17 48° ENE 20:13:15 10° SE visible
22 Jun 5.0 21:45:36 10° NW 21:49:50 27° W 21:53:39 12° SSW visible
23 Jun 4.2 21:04:24 10° NNW 21:09:18 46° WSW 21:13:46 12° S visible
